When you browse on this site, cookies collect data to enhance your experience and personalize the content and advertising you see.
Visit our Privacy Policy to learn more. By continuing to use the site, you agree to this use of cookies and data.
  • In Hungary
  • List of Countries
  • For 7 days
  • Water Temperature
  • Satellite Maps
  • Weather Map
  • News
  • Weather Widgets
  • user-avatar
    Login

    Hourly Weather Tuazar

    Today, 21 April, Sunday

    Time Temperature Precipitation Wind Pressure Humidity
    00:00 +21°C° 0 mm 11 mps 750 mmHg 54%
    01:00 +19°C° 0 mm 10 mps 749 mmHg 55%
    02:00 +19°C° 0 mm 10 mps 749 mmHg 57%
    03:00 +18°C° 0 mm 10 mps 749 mmHg 58%
    04:00 +18°C° 0 mm 11 mps 748 mmHg 60%
    05:00 +18°C° 0 mm 10 mps 748 mmHg 60%
    06:00 +18°C° 0 mm 10 mps 748 mmHg 60%
    07:00 +19°C° 0 mm 9 mps 748 mmHg 56%
    08:00 +22°C° 0 mm 9 mps 747 mmHg 50%
    09:00 +24°C° 0 mm 9 mps 747 mmHg 43%
    10:00 +27°C° 0 mm 9 mps 747 mmHg 36%
    11:00 +31°C° 0 mm 8 mps 747 mmHg 29%
    12:00 +34°C° 0 mm 7 mps 747 mmHg 21%
    13:00 +38°C° 0 mm 7 mps 746 mmHg 14%
    14:00 +39°C° 0 mm 8 mps 746 mmHg 11%
    15:00 +40°C° 0 mm 10 mps 745 mmHg 8%
    16:00 +43°C° 0 mm 11 mps 745 mmHg 5%
    17:00 +40°C° 0 mm 9 mps 745 mmHg 5%
    18:00 +39°C° 0 mm 6 mps 744 mmHg 5%
    19:00 +36°C° 0 mm 4 mps 744 mmHg 6%
    20:00 +35°C° 0 mm 4 mps 744 mmHg 8%
    21:00 +33°C° 0 mm 4 mps 744 mmHg 11%
    22:00 +32°C° 0 mm 5 mps 744 mmHg 13%
    23:00 +30°C° 0 mm 4 mps 744 mmHg 16%

    Tomorrow, 22 April, Monday

    Time Temperature Precipitation Wind Pressure Humidity
    00:00 +28°C° 0 mm 4 mps 744 mmHg 20%
    01:00 +27°C° 0 mm 4 mps 744 mmHg 23%
    02:00 +27°C° 0 mm 4 mps 744 mmHg 22%
    03:00 +26°C° 0 mm 3 mps 744 mmHg 21%
    04:00 +25°C° 0 mm 3 mps 744 mmHg 20%
    05:00 +25°C° 0 mm 4 mps 744 mmHg 22%
    06:00 +24°C° 0 mm 6 mps 744 mmHg 25%
    07:00 +26°C° 0 mm 7 mps 745 mmHg 27%
    08:00 +26°C° 0 mm 8 mps 745 mmHg 26%
    09:00 +27°C° 0 mm 9 mps 745 mmHg 26%
    10:00 +28°C° 0 mm 11 mps 746 mmHg 26%
    11:00 +28°C° 0 mm 11 mps 746 mmHg 25%
    12:00 +29°C° 0 mm 10 mps 746 mmHg 24%
    13:00 +29°C° 0 mm 10 mps 746 mmHg 24%
    14:00 +29°C° 0 mm 11 mps 746 mmHg 23%
    15:00 +31°C° 0 mm 11 mps 746 mmHg 22%
    16:00 +31°C° 0 mm 11 mps 746 mmHg 22%
    17:00 +31°C° 0 mm 10 mps 746 mmHg 21%
    18:00 +29°C° 0 mm 9 mps 746 mmHg 21%
    19:00 +29°C° 0 mm 8 mps 747 mmHg 21%
    20:00 +29°C° 0 mm 6 mps 747 mmHg 21%
    21:00 +28°C° 0 mm 5 mps 748 mmHg 22%
    22:00 +28°C° 0 mm 4 mps 748 mmHg 22%
    23:00 +27°C° 0 mm 4 mps 748 mmHg 25%

    Day after tomorrow, 23 April, Tuesday

    Time Temperature Precipitation Wind Pressure Humidity
    00:00 +26°C° 0 mm 3 mps 748 mmHg 28%
    01:00 +25°C° 0 mm 3 mps 748 mmHg 31%
    02:00 +24°C° 0 mm 2 mps 748 mmHg 34%
    03:00 +24°C° 0 mm 2 mps 748 mmHg 36%
    04:00 +23°C° 0 mm 1 mps 748 mmHg 38%
    05:00 +24°C° 0 mm 1 mps 749 mmHg 37%
    06:00 +24°C° 0 mm 1 mps 750 mmHg 35%
    07:00 +23°C° 0 mm 0 mps 750 mmHg 34%
    08:00 +26°C° 0 mm 1 mps 750 mmHg 32%
    09:00 +27°C° 0 mm 2 mps 751 mmHg 29%
    10:00 +27°C° 0 mm 3 mps 751 mmHg 27%
    11:00 +28°C° 0 mm 2 mps 751 mmHg 24%
    12:00 +29°C° 0 mm 2 mps 751 mmHg 22%
    13:00 +30°C° 0 mm 2 mps 751 mmHg 20%
    14:00 +31°C° 0 mm 2 mps 750 mmHg 19%
    15:00 +31°C° 0 mm 2 mps 750 mmHg 18%
    16:00 +32°C° 0 mm 2 mps 749 mmHg 16%
    17:00 +32°C° 0 mm 2 mps 750 mmHg 16%
    18:00 +32°C° 0 mm 2 mps 750 mmHg 16%
    19:00 +31°C° 0 mm 2 mps 750 mmHg 17%
    20:00 +31°C° 0 mm 3 mps 750 mmHg 17%
    21:00 +30°C° 0 mm 3 mps 751 mmHg 18%
    22:00 +29°C° 0 mm 4 mps 752 mmHg 19%
    23:00 +28°C° 0 mm 5 mps 751 mmHg 21%

    24 April, Wednesday

    Time Temperature Precipitation Wind Pressure Humidity
    00:00 +28°C° 0 mm 6 mps 751 mmHg 23%
    01:00 +27°C° 0 mm 6 mps 751 mmHg 25%
    02:00 +26°C° 0 mm 7 mps 751 mmHg 27%
    03:00 +26°C° 0 mm 7 mps 750 mmHg 29%
    04:00 +24°C° 0 mm 7 mps 750 mmHg 31%
    05:00 +24°C° 0 mm 8 mps 750 mmHg 33%
    06:00 +23°C° 0 mm 8 mps 750 mmHg 34%
    07:00 +23°C° 0 mm 9 mps 750 mmHg 36%
    08:00 +26°C° 0 mm 8 mps 750 mmHg 33%
    09:00 +28°C° 0 mm 8 mps 750 mmHg 31%
    10:00 +30°C° 0 mm 7 mps 750 mmHg 28%
    11:00 +34°C° 0 mm 8 mps 750 mmHg 21%
    12:00 +37°C° 0 mm 8 mps 750 mmHg 14%
    13:00 +40°C° 0 mm 8 mps 750 mmHg 7%
    14:00 +40°C° 0 mm 8 mps 750 mmHg 7%
    15:00 +40°C° 0 mm 8 mps 750 mmHg 6%
    16:00 +40°C° 0 mm 8 mps 749 mmHg 6%
    17:00 +38°C° 0 mm 7 mps 750 mmHg 7%
    18:00 +36°C° 0 mm 5 mps 750 mmHg 7%
    19:00 +35°C° 0 mm 3 mps 750 mmHg 8%
    20:00 +34°C° 0 mm 2 mps 751 mmHg 9%
    21:00 +32°C° 0 mm 2 mps 752 mmHg 10%
    22:00 +31°C° 0 mm 1 mps 753 mmHg 10%
    23:00 +30°C° 0 mm 3 mps 753 mmHg 17%

    25 April, Thursday

    Time Temperature Precipitation Wind Pressure Humidity
    00:00 +29°C° 0 mm 5 mps 753 mmHg 24%
    01:00 +28°C° 0 mm 7 mps 753 mmHg 30%
    02:00 +26°C° 0 mm 6 mps 754 mmHg 39%
    03:00 +24°C° 0 mm 6 mps 754 mmHg 47%
    04:00 +23°C° 0 mm 5 mps 754 mmHg 56%
    05:00 +23°C° 0 mm 6 mps 754 mmHg 56%
    06:00 +22°C° 0 mm 6 mps 755 mmHg 55%
    07:00 +22°C° 0 mm 7 mps 755 mmHg 55%
    08:00 +24°C° 0 mm 7 mps 756 mmHg 49%
    09:00 +26°C° 0 mm 6 mps 756 mmHg 43%
    10:00 +28°C° 0 mm 6 mps 757 mmHg 37%
    11:00 +29°C° 0 mm 6 mps 756 mmHg 32%
    12:00 +32°C° 0 mm 5 mps 756 mmHg 28%
    13:00 +33°C° 0 mm 5 mps 756 mmHg 23%
    14:00 +34°C° 0 mm 5 mps 756 mmHg 22%
    15:00 +35°C° 0 mm 5 mps 756 mmHg 20%
    16:00 +35°C° 0 mm 5 mps 755 mmHg 18%
    17:00 +34°C° 0 mm 6 mps 756 mmHg 23%
    18:00 +32°C° 0 mm 7 mps 756 mmHg 28%
    19:00 +31°C° 0 mm 8 mps 756 mmHg 33%
    20:00 +28°C° 0 mm 8 mps 757 mmHg 37%
    21:00 +27°C° 0 mm 8 mps 758 mmHg 42%
    22:00 +24°C° 0 mm 7 mps 759 mmHg 47%
    23:00 +24°C° 0 mm 6 mps 759 mmHg 47%

    26 April, Friday

    Time Temperature Precipitation Wind Pressure Humidity
    00:00 +24°C° 0 mm 6 mps 759 mmHg 48%
    01:00 +23°C° 0 mm 5 mps 759 mmHg 48%
    02:00 +23°C° 0 mm 5 mps 759 mmHg 49%
    03:00 +22°C° 0 mm 4 mps 759 mmHg 50%
    04:00 +22°C° 0 mm 4 mps 759 mmHg 51%
    05:00 +22°C° 0 mm 5 mps 760 mmHg 52%
    06:00 +21°C° 0 mm 5 mps 760 mmHg 52%
    07:00 +21°C° 0 mm 5 mps 761 mmHg 53%
    08:00 +23°C° 0 mm 5 mps 761 mmHg 48%
    09:00 +26°C° 0 mm 5 mps 761 mmHg 43%
    10:00 +27°C° 0 mm 5 mps 762 mmHg 38%
    11:00 +29°C° 0 mm 5 mps 761 mmHg 34%
    12:00 +30°C° 0 mm 5 mps 761 mmHg 31%
    13:00 +32°C° 0 mm 4 mps 761 mmHg 27%
    14:00 +33°C° 0 mm 4 mps 760 mmHg 26%
    15:00 +33°C° 0 mm 4 mps 760 mmHg 24%
    16:00 +34°C° 0 mm 4 mps 759 mmHg 23%
    17:00 +33°C° 0 mm 5 mps 760 mmHg 23%
    18:00 +32°C° 0 mm 6 mps 760 mmHg 23%
    19:00 +30°C° 0 mm 7 mps 760 mmHg 24%
    20:00 +29°C° 0 mm 7 mps 760 mmHg 26%
    21:00 +28°C° 0 mm 7 mps 761 mmHg 27%
    22:00 +26°C° 0 mm 7 mps 762 mmHg 29%
    23:00 +24°C° 0 mm 7 mps 762 mmHg 34%
    Show more